Location: Rio Negrinho
(26.2394°S, 49.4999°W)
Time: 18:17:12
(UTC+00:00)

Hubble Space Telescope - Pass Details

Date: 31 July 2021
Orbit: 535 x 539 km, 28.5° (Epoch: 22 September)

Event Time Altitude Azimuth Distance (km) Brightness Sun altitude
Exits shadow 07:25:17 16° 97° (E) 1,448 3.6 -34.1°
Drops below altitude 10° 07:26:12 10° 99° (E) 1,794 4.2 -33.9°
Sets 07:28:28 0° 101° (ESE) 2,688 5.3 -33.4°
